{"data":{"norad_id":65534,"intl_designator":"2025-200Q","name":"STARLINK-35125","alt_names":[],"object_type":"PAYLOAD","status":"ACTIVE","operator":null,"country":"US","launch_date":"2025-09-06","launch_site_code":"AFWTR","launch_vehicle":null,"mission":null,"orbit_class":"UNKNOWN","rcs_meters":null,"size_class":null,"mass_kg":null,"dimensions":null,"purposes":["comms"],"wikipedia_slug":null,"has_3d_model":false,"image_url":null,"decayed_at":null,"tle_current":{"epoch":"2026-09-20T04:17:47.836032Z","epoch_age_seconds":139712,"freshness":"FRESH","line1":"1 65534U 25200Q   26263.17902588  .00019709  00000+0  61087-3 0  9991","line2":"2 65534  97.2864 329.5928 0000336  84.3523 275.7758 15.33463788 58592","mean_motion":15.33463788,"eccentricity":3.36e-5,"inclination_deg":97.2864,"raan_deg":329.5928,"arg_perigee_deg":84.3523,"mean_anomaly_deg":275.7758,"bstar":0.00061087,"rev_number":5859,"period_min":93.905054117913,"perigee_km":465.25732940371,"apogee_km":465.717220955,"semimajor_km":6843.6242751794,"source":"CELESTRAK","updated_at":"2026-09-21T09:00:35.650496Z"}}}